Change the Weather History Date:

Monday, July 14, 2014

  Actual Average Record
Temperature  
Mean Temperature 64 °F -  
Max Temperature 76 °F 84 °F 98 °F (1974)
Min Temperature 53 °F 62 °F 50 °F (1975)
Growing Degree Days 14 (Base 50)    
Moisture  
Dew Point 53 °F    
Average Humidity 69    
Maximum Humidity 94    
Minimum Humidity 39    
Precipitation  
Precipitation 0.16 in - - ()
Sea Level Pressure  
Sea Level Pressure 29.91 in    
Wind  
Wind Speed 5 mph (WNW)    
Max Wind Speed 18 mph    
Max Gust Speed 31 mph    
Visibility 10 miles    
Events Rain    
Averages and records for this station are not official NWS values.
T = Trace of Precipitation, MM = Missing Value Source: NWS Daily Summary

Daily Weather History Graph

Daily Weather History Graph

Search for Another Location

Airport or City:

Trip Planner

Search our weather history database for the weather conditions in past years. The results will help you decide how hot, cold, wet, or windy it might be!

Date:

Astronomy

Jul. 14, 2014 Rise Set
Actual Time 5:34 AM CDT 8:33 PM CDT
Civil Twilight 5:00 AM CDT 9:07 PM CDT
Nautical Twilight 4:18 AM CDT 9:49 PM CDT
Astronomical Twilight 3:27 AM CDT 10:39 PM CDT
Moon 9:58 PM CDT (7/14) 8:20 AM CDT (7/14)
Length of Visible Light 16h 06m
Length of Day
14h 59m
Waning Gibbous, 93% of the Moon is Illuminated
Jul 14
Waning Gibbous
Jul 18
Last Quarter
Jul 26
New
Aug 3
First Quarter
Aug 10
Full

Hourly Weather History & Observations

Time (CDT) Temp. Dew Point Humidity Pressure Visibility Wind Dir Wind Speed Gust Speed Precip Events Conditions
12:15 AM 58.3 °F 55.9 °F 92% 29.95 in 10.0 mi Calm Calm - N/A   Clear
12:35 AM 58.3 °F 55.9 °F 92% 29.95 in 10.0 mi Calm Calm - N/A   Clear
12:55 AM 57.0 °F 54.9 °F 92% 29.94 in 10.0 mi Calm Calm - N/A   Clear
1:15 AM 58.3 °F 55.9 °F 92% 29.94 in 10.0 mi Calm Calm - N/A   Clear
1:35 AM 58.3 °F 55.4 °F 90% 29.93 in 10.0 mi Calm Calm - N/A   Clear
1:55 AM 58.3 °F 55.4 °F 90% 29.93 in 10.0 mi Calm Calm - N/A   Scattered Clouds
2:15 AM 57.2 °F 54.9 °F 92% 29.93 in 10.0 mi South 3.5 mph - N/A   Mostly Cloudy
2:35 AM 58.3 °F 55.9 °F 92% 29.92 in 10.0 mi Calm Calm - N/A   Mostly Cloudy
2:55 AM 58.3 °F 55.0 °F 89% 29.92 in 10.0 mi Calm Calm - N/A   Mostly Cloudy
3:15 AM 58.3 °F 55.6 °F 91% 29.92 in 10.0 mi Calm Calm - N/A   Mostly Cloudy
3:35 AM 57.6 °F 55.6 °F 93% 29.91 in 10.0 mi Calm Calm - N/A   Mostly Cloudy
3:55 AM 57.4 °F 55.4 °F 93% 29.91 in 10.0 mi Calm Calm - N/A   Mostly Cloudy
4:15 AM 57.6 °F 55.4 °F 92% 29.91 in 10.0 mi Calm Calm - N/A   Scattered Clouds
4:35 AM 58.1 °F 56.3 °F 94% 29.91 in 10.0 mi Calm Calm - N/A   Mostly Cloudy
4:55 AM 58.3 °F 56.5 °F 94% 29.92 in 7.0 mi WNW 4.6 mph - N/A Rain Rain
5:15 AM 58.3 °F 55.9 °F 92% 29.92 in 4.0 mi SW 5.8 mph - 0.04 in Rain Heavy Rain
5:35 AM 57.0 °F 54.9 °F 92% 29.91 in 3.0 mi Calm Calm - 0.12 in Rain Rain
5:55 AM 56.8 °F 54.9 °F 93% 29.91 in 4.0 mi Calm Calm - 0.15 in Rain Rain
6:15 AM 57.2 °F 55.4 °F 94% 29.91 in 7.0 mi South 4.6 mph - 0.01 in   Mostly Cloudy
6:35 AM 58.3 °F 56.5 °F 94% 29.90 in 10.0 mi SSE 8.1 mph - 0.01 in   Mostly Cloudy
6:55 AM 58.3 °F 55.4 °F 90% 29.90 in 10.0 mi SE 4.6 mph - 0.01 in   Mostly Cloudy
7:15 AM 58.3 °F 56.3 °F 93% 29.89 in 10.0 mi SE 4.6 mph - N/A   Scattered Clouds
7:35 AM 60.8 °F 57.6 °F 89% 29.90 in 10.0 mi ESE 3.5 mph - N/A   Scattered Clouds
7:55 AM 60.8 °F 57.0 °F 87% 29.90 in 10.0 mi Calm Calm - N/A   Scattered Clouds
8:15 AM 62.1 °F 57.7 °F 86% 29.90 in 10.0 mi Calm Calm - N/A   Scattered Clouds
8:35 AM 64.4 °F 59.0 °F 83% 29.91 in 10.0 mi NW 3.5 mph - N/A   Clear
8:55 AM 64.4 °F 59.4 °F 84% 29.91 in 10.0 mi WNW 5.8 mph - N/A   Clear
9:15 AM 66.2 °F 60.6 °F 82% 29.91 in 10.0 mi WNW 3.5 mph - N/A   Clear
9:35 AM 66.9 °F 58.6 °F 75% 29.91 in 10.0 mi Calm Calm - N/A   Clear
9:55 AM 69.4 °F 61.2 °F 75% 29.91 in 10.0 mi Calm Calm - N/A   Clear
10:15 AM 71.1 °F 61.9 °F 73% 29.91 in 10.0 mi WNW 3.5 mph - N/A   Clear
10:35 AM 71.1 °F 61.0 °F 70% 29.90 in 10.0 mi West 6.9 mph - N/A   Clear
10:55 AM 71.2 °F 54.9 °F 56% 29.90 in 10.0 mi NW 6.9 mph - N/A   Clear
11:15 AM 72.9 °F 54.1 °F 52% 29.90 in 10.0 mi NW 8.1 mph - N/A   Clear
11:35 AM 73.6 °F 47.1 °F 39% 29.90 in 10.0 mi WNW 9.2 mph - N/A   Clear
11:55 AM 73.6 °F 48.7 °F 41% 29.89 in 10.0 mi WNW 10.4 mph 16.1 mph N/A   Clear
12:15 PM 74.7 °F 50.0 °F 42% 29.89 in 10.0 mi WNW 12.7 mph 16.1 mph N/A   Clear
12:35 PM 74.7 °F 48.9 °F 40% 29.88 in 10.0 mi West 11.5 mph - N/A   Scattered Clouds
12:55 PM 74.8 °F 49.6 °F 41% 29.88 in 10.0 mi West 11.5 mph - N/A   Scattered Clouds
1:15 PM 76.1 °F 51.3 °F 42% 29.87 in 10.0 mi West 13.8 mph 19.6 mph N/A   Scattered Clouds
1:35 PM 75.9 °F 50.9 °F 41% 29.87 in 10.0 mi WNW 11.5 mph 19.6 mph N/A   Scattered Clouds
1:55 PM 72.5 °F 50.2 °F 45% 29.87 in 10.0 mi WNW 13.8 mph 17.3 mph N/A   Scattered Clouds
2:15 PM 72.5 °F 49.6 °F 44% 29.87 in 10.0 mi West 13.8 mph - N/A   Scattered Clouds
2:35 PM 73.6 °F 49.3 °F 42% 29.87 in 10.0 mi WNW 16.1 mph 20.7 mph N/A   Scattered Clouds
2:55 PM 71.1 °F 48.4 °F 44% 29.87 in 10.0 mi NW 13.8 mph 18.4 mph N/A   Scattered Clouds
3:15 PM 71.1 °F 52.3 °F 52% 29.87 in 10.0 mi WNW 15.0 mph 26.5 mph N/A   Scattered Clouds
3:35 PM 71.1 °F 53.1 °F 53% 29.87 in 10.0 mi WNW 13.8 mph 21.9 mph N/A   Scattered Clouds
3:55 PM 71.1 °F 53.1 °F 53% 29.88 in 10.0 mi NW 17.3 mph 24.2 mph N/A   Scattered Clouds
4:15 PM 71.6 °F 53.6 °F 53% 29.88 in 10.0 mi WNW 12.7 mph - N/A   Mostly Cloudy
4:35 PM 71.6 °F 48.2 °F 43% 29.87 in 10.0 mi WNW 16.1 mph 26.5 mph N/A   Scattered Clouds
4:55 PM 71.1 °F 47.5 °F 43% 29.88 in 10.0 mi WNW 18.4 mph 31.1 mph N/A   Clear
5:15 PM 71.1 °F 50.4 °F 48% 29.87 in 10.0 mi WNW 10.4 mph 23.0 mph N/A   Clear
5:35 PM 71.1 °F 49.8 °F 47% 29.88 in 10.0 mi WNW 13.8 mph 20.7 mph N/A   Scattered Clouds
5:55 PM 68.9 °F 49.3 °F 50% 29.88 in 10.0 mi WNW 15.0 mph 24.2 mph N/A   Scattered Clouds
6:15 PM 68.5 °F 48.7 °F 49% 29.88 in 10.0 mi WNW 10.4 mph 21.9 mph N/A   Scattered Clouds
6:35 PM 66.2 °F 47.8 °F 52% 29.89 in 10.0 mi WNW 15.0 mph 19.6 mph N/A   Clear
6:55 PM 68.5 °F 49.5 °F 50% 29.89 in 10.0 mi WNW 11.5 mph 17.3 mph N/A   Clear
7:15 PM 66.2 °F 47.5 °F 51% 29.90 in 10.0 mi WNW 15.0 mph 20.7 mph N/A   Scattered Clouds
7:35 PM 66.2 °F 48.2 °F 52% 29.91 in 10.0 mi WNW 13.8 mph 21.9 mph N/A   Scattered Clouds
7:55 PM 63.5 °F 47.1 °F 55% 29.91 in 10.0 mi WNW 13.8 mph 21.9 mph N/A   Scattered Clouds
8:15 PM 62.1 °F 48.4 °F 61% 29.92 in 10.0 mi WNW 9.2 mph - N/A   Mostly Cloudy
8:35 PM 62.1 °F 47.5 °F 59% 29.92 in 10.0 mi NW 10.4 mph 16.1 mph N/A   Overcast
8:55 PM 61.0 °F 47.3 °F 61% 29.92 in 10.0 mi NW 11.5 mph - N/A   Overcast
9:15 PM 60.8 °F 46.4 °F 59% 29.93 in 10.0 mi WNW 10.4 mph - N/A   Overcast
9:35 PM 59.0 °F 46.9 °F 64% 29.93 in 10.0 mi WNW 8.1 mph - N/A   Scattered Clouds
9:55 PM 58.3 °F 46.8 °F 66% 29.94 in 10.0 mi WNW 9.2 mph - N/A   Clear
10:15 PM 57.2 °F 46.9 °F 69% 29.94 in 10.0 mi WNW 9.2 mph - N/A   Clear
10:35 PM 55.8 °F 46.2 °F 70% 29.94 in 10.0 mi WNW 9.2 mph - N/A   Clear
10:55 PM 55.8 °F 46.4 °F 71% 29.94 in 10.0 mi WNW 10.4 mph - N/A   Clear
11:15 PM 55.8 °F 48.0 °F 75% 29.93 in 10.0 mi West 5.8 mph - N/A   Clear
11:35 PM 53.2 °F 47.5 °F 81% 29.93 in 10.0 mi WSW 3.5 mph - N/A   Clear
11:55 PM 53.2 °F 47.8 °F 82% 29.93 in 10.0 mi West 8.1 mph - N/A   Clear